Location: Ceske Budejovice
(48.9830°N, 14.4670°E)
Time: 20:03:11
(UTC+01:00)

ISS - Pass Details

Date: 28 November 2019
Orbit: 411 x 421 km, 51.6° (Epoch: 10 December)

Event Time Altitude Azimuth Distance (km) Brightness Sun altitude
Rises 18:24:55 0° 266° (W) 2,356 1.6 -21.5°
Reaches altitude 10° 18:27:01 10° 270° (W) 1,495 0.2 -21.9°
Enters shadow 18:29:45 48° 307° (NW) 555 -3.0 -22.3°
